• In Austria
  • List of Countries
  • For 7 days
  • Water Temperature
  • Satellite Maps
  • Weather Map
  • News
  • Weather Widgets
  • user-avatar
    Login

    Hourly Weather Murfreesboro

    Today, 19 June, Tuesday

    Time Temperature Precipitation Wind Pressure Humidity
    00:00 +25°C° 0 mm 1 mps 747 mmHg 93%
    01:00 +25°C° 1.1 mm 1 mps 747 mmHg 92%
    02:00 +24°C° 1.1 mm 1 mps 747 mmHg 92%
    03:00 +24°C° 1.1 mm 1 mps 747 mmHg 91%
    04:00 +24°C° 0.3 mm 1 mps 747 mmHg 91%
    05:00 +25°C° 0.3 mm 1 mps 747 mmHg 91%
    06:00 +25°C° 0.3 mm 1 mps 748 mmHg 90%
    07:00 +27°C° 0.6 mm 2 mps 748 mmHg 84%
    08:00 +28°C° 0.6 mm 2 mps 747 mmHg 78%
    09:00 +30°C° 0.6 mm 3 mps 747 mmHg 72%
    10:00 +31°C° 0.2 mm 3 mps 747 mmHg 67%
    11:00 +33°C° 0.2 mm 3 mps 747 mmHg 62%
    12:00 +33°C° 0.2 mm 3 mps 747 mmHg 57%
    13:00 +34°C° 0 mm 3 mps 746 mmHg 57%
    14:00 +34°C° 0 mm 3 mps 746 mmHg 58%
    15:00 +34°C° 0 mm 3 mps 745 mmHg 58%
    16:00 +32°C° 0.2 mm 2 mps 745 mmHg 65%
    17:00 +30°C° 0.2 mm 2 mps 745 mmHg 71%
    18:00 +29°C° 0.2 mm 2 mps 745 mmHg 78%
    19:00 +28°C° 0 mm 2 mps 745 mmHg 80%
    20:00 +27°C° 0 mm 2 mps 745 mmHg 81%
    21:00 +25°C° 0 mm 2 mps 746 mmHg 83%
    22:00 +25°C° 0 mm 2 mps 745 mmHg 82%
    23:00 +24°C° 0 mm 2 mps 745 mmHg 81%

    Tomorrow, 20 June, Wednesday

    Time Temperature Precipitation Wind Pressure Humidity
    00:00 +24°C° 0 mm 2 mps 745 mmHg 80%
    01:00 +24°C° 0 mm 1 mps 745 mmHg 79%
    02:00 +24°C° 0 mm 1 mps 745 mmHg 78%
    03:00 +23°C° 0 mm 1 mps 744 mmHg 77%
    04:00 +24°C° 0 mm 1 mps 745 mmHg 78%
    05:00 +24°C° 0 mm 1 mps 745 mmHg 80%
    06:00 +24°C° 0 mm 1 mps 745 mmHg 81%
    07:00 +26°C° 0 mm 1 mps 745 mmHg 75%
    08:00 +28°C° 0 mm 1 mps 745 mmHg 70%
    09:00 +29°C° 0 mm 2 mps 745 mmHg 64%
    10:00 +30°C° 0.1 mm 2 mps 745 mmHg 63%
    11:00 +31°C° 0.1 mm 3 mps 744 mmHg 62%
    12:00 +33°C° 0.1 mm 3 mps 744 mmHg 60%
    13:00 +32°C° 0.7 mm 4 mps 744 mmHg 67%
    14:00 +30°C° 0.7 mm 4 mps 743 mmHg 74%
    15:00 +29°C° 0.7 mm 4 mps 743 mmHg 80%
    16:00 +28°C° 1 mm 3 mps 743 mmHg 83%
    17:00 +28°C° 1 mm 3 mps 743 mmHg 86%
    18:00 +27°C° 1 mm 2 mps 743 mmHg 88%
    19:00 +26°C° 0.1 mm 2 mps 743 mmHg 89%
    20:00 +25°C° 0.1 mm 2 mps 743 mmHg 90%
    21:00 +25°C° 0.1 mm 2 mps 744 mmHg 91%
    22:00 +24°C° 0.2 mm 2 mps 743 mmHg 92%
    23:00 +24°C° 0.2 mm 2 mps 743 mmHg 93%

    Day after tomorrow, 21 June, Thursday

    Time Temperature Precipitation Wind Pressure Humidity
    00:00 +24°C° 0.2 mm 2 mps 743 mmHg 94%
    01:00 +23°C° 0.2 mm 2 mps 743 mmHg 94%
    02:00 +23°C° 0.2 mm 2 mps 743 mmHg 95%
    03:00 +23°C° 0.2 mm 1 mps 742 mmHg 95%
    04:00 +23°C° 0.2 mm 1 mps 742 mmHg 95%
    05:00 +23°C° 0.2 mm 1 mps 742 mmHg 95%
    06:00 +23°C° 0.2 mm 1 mps 742 mmHg 95%
    07:00 +24°C° 0.2 mm 1 mps 743 mmHg 95%
    08:00 +24°C° 0.2 mm 2 mps 743 mmHg 94%
    09:00 +24°C° 0.2 mm 2 mps 743 mmHg 94%
    10:00 +26°C° 0.1 mm 2 mps 743 mmHg 89%
    11:00 +27°C° 0.1 mm 3 mps 742 mmHg 84%
    12:00 +29°C° 0.1 mm 3 mps 742 mmHg 79%
    13:00 +29°C° 1 mm 3 mps 741 mmHg 80%
    14:00 +29°C° 1 mm 4 mps 741 mmHg 82%
    15:00 +29°C° 1 mm 4 mps 740 mmHg 83%
    16:00 +29°C° 0.8 mm 3 mps 740 mmHg 86%
    17:00 +28°C° 0.8 mm 3 mps 740 mmHg 88%
    18:00 +28°C° 0.8 mm 3 mps 740 mmHg 90%
    19:00 +27°C° 0.4 mm 3 mps 740 mmHg 92%
    20:00 +26°C° 0.4 mm 2 mps 740 mmHg 94%
    21:00 +25°C° 0.4 mm 2 mps 741 mmHg 95%
    22:00 +25°C° 0.5 mm 2 mps 740 mmHg 96%
    23:00 +25°C° 0.5 mm 3 mps 740 mmHg 96%

    22 June, Friday

    Time Temperature Precipitation Wind Pressure Humidity
    00:00 +24°C° 0.5 mm 3 mps 740 mmHg 96%
    01:00 +24°C° 0.1 mm 3 mps 740 mmHg 97%
    02:00 +24°C° 0.1 mm 3 mps 740 mmHg 97%
    03:00 +24°C° 0.1 mm 3 mps 740 mmHg 97%
    04:00 +24°C° 0 mm 3 mps 740 mmHg 97%
    05:00 +24°C° 0 mm 3 mps 740 mmHg 96%
    06:00 +25°C° 0 mm 4 mps 740 mmHg 96%
    07:00 +26°C° 0.8 mm 4 mps 740 mmHg 90%
    08:00 +27°C° 0.8 mm 5 mps 740 mmHg 84%
    09:00 +29°C° 0.8 mm 5 mps 741 mmHg 78%
    10:00 +29°C° 1 mm 5 mps 740 mmHg 77%
    11:00 +29°C° 1 mm 6 mps 740 mmHg 77%
    12:00 +30°C° 1 mm 6 mps 740 mmHg 76%
    13:00 +30°C° 2.2 mm 6 mps 739 mmHg 78%
    14:00 +29°C° 2.2 mm 6 mps 739 mmHg 81%
    15:00 +29°C° 2.2 mm 6 mps 738 mmHg 83%
    16:00 +28°C° 1.3 mm 6 mps 738 mmHg 85%
    17:00 +27°C° 1.3 mm 5 mps 738 mmHg 87%
    18:00 +26°C° 1.3 mm 5 mps 738 mmHg 89%
    19:00 +25°C° 0.3 mm 4 mps 739 mmHg 90%
    20:00 +23°C° 0.3 mm 4 mps 739 mmHg 91%
    21:00 +24°C° 0.3 mm 3 mps 739 mmHg 92%
    22:00 +22°C° 0.1 mm 3 mps 739 mmHg 93%
    23:00 +22°C° 0.1 mm 3 mps 739 mmHg 93%

    23 June, Saturday

    Time Temperature Precipitation Wind Pressure Humidity
    00:00 +22°C° 0.1 mm 3 mps 739 mmHg 93%
    01:00 +21°C° 0 mm 3 mps 739 mmHg 94%
    02:00 +21°C° 0 mm 2 mps 739 mmHg 95%
    03:00 +21°C° 0 mm 2 mps 739 mmHg 95%
    04:00 +21°C° 0 mm 2 mps 740 mmHg 95%
    05:00 +23°C° 0 mm 2 mps 740 mmHg 94%
    06:00 +23°C° 0 mm 2 mps 740 mmHg 93%
    07:00 +25°C° 0 mm 3 mps 741 mmHg 85%
    08:00 +27°C° 0 mm 3 mps 741 mmHg 78%
    09:00 +28°C° 0 mm 3 mps 741 mmHg 70%
    10:00 +29°C° 0 mm 4 mps 742 mmHg 68%
    11:00 +30°C° 0 mm 4 mps 742 mmHg 65%
    12:00 +32°C° 0 mm 5 mps 742 mmHg 63%
    13:00 +32°C° 0 mm 4 mps 742 mmHg 64%
    14:00 +32°C° 0 mm 4 mps 742 mmHg 65%
    15:00 +31°C° 0 mm 3 mps 741 mmHg 66%
    16:00 +30°C° 0 mm 3 mps 741 mmHg 72%
    17:00 +29°C° 0 mm 3 mps 742 mmHg 78%
    18:00 +27°C° 0 mm 3 mps 742 mmHg 83%
    19:00 +27°C° 0 mm 2 mps 742 mmHg 86%
    20:00 +26°C° 0 mm 2 mps 742 mmHg 89%
    21:00 +25°C° 0 mm 2 mps 742 mmHg 92%
    22:00 +24°C° 0 mm 2 mps 742 mmHg 93%
    23:00 +24°C° 0 mm 2 mps 742 mmHg 94%

    24 June, Sunday

    Time Temperature Precipitation Wind Pressure Humidity
    00:00 +24°C° 0 mm 3 mps 742 mmHg 94%
    01:00 +24°C° 0.2 mm 2 mps 742 mmHg 94%
    02:00 +24°C° 0.2 mm 2 mps 742 mmHg 94%
    03:00 +23°C° 0.2 mm 1 mps 742 mmHg 95%
    04:00 +24°C° 0.7 mm 2 mps 743 mmHg 95%
    05:00 +24°C° 0.7 mm 2 mps 743 mmHg 95%
    06:00 +25°C° 0.7 mm 3 mps 743 mmHg 95%
    07:00 +26°C° 1.6 mm 3 mps 743 mmHg 92%
    08:00 +27°C° 1.6 mm 3 mps 744 mmHg 90%
    09:00 +28°C° 1.6 mm 3 mps 744 mmHg 87%
    10:00 +29°C° 0.2 mm 3 mps 744 mmHg 82%
    11:00 +31°C° 0.2 mm 3 mps 744 mmHg 76%
    12:00 +33°C° 0.2 mm 3 mps 744 mmHg 70%
    13:00 +33°C° 0.2 mm 3 mps 744 mmHg 69%
    14:00 +33°C° 0.2 mm 3 mps 743 mmHg 69%
    15:00 +33°C° 0.2 mm 3 mps 743 mmHg 68%
    16:00 +33°C° 1.5 mm 3 mps 743 mmHg 73%
    17:00 +31°C° 1.5 mm 2 mps 743 mmHg 78%
    18:00 +30°C° 1.5 mm 2 mps 744 mmHg 83%
    19:00 +28°C° 1 mm 1 mps 744 mmHg 85%
    20:00 +27°C° 1 mm 1 mps 744 mmHg 88%
    21:00 +26°C° 1 mm 1 mps 744 mmHg 90%
    22:00 +26°C° 1.7 mm 1 mps 744 mmHg 91%
    23:00 +25°C° 1.7 mm 1 mps 744 mmHg 92%
    Show more